This demonstration page uses our WeatherBlox Daily Observations layout. Learn more.

Left ArrowRight Arrow

Hourly Observations for August 3, 2021

Temp ( °F °C ) Dew Point ( °F °C ) Humidity (%) Winds ( mph kmh ) Pressure ( in mb ) Visibility ( mi km ) Precip ( " mm )
12:51 am 00:51 Clear 76 24.4 66 18.9 72 72 SSE 9 15 29.92 1013 10 16 N/A
1:51 am 01:51 Clear 75 23.9 66 18.9 74 74 ESE 7 11 29.90 1013 10 16 N/A
2:51 am 02:51 Clear 74 23.3 66 18.9 76 76 SSE 9 15 29.91 1013 10 16 N/A
3:51 am 03:51 Clear 74 23.3 66 18.9 76 76 SSE 8 13 29.90 1013 10 16 N/A
4:51 am 04:51 Clear 74 23.3 66 18.9 76 76 SSE 10 17 29.91 1013 10 16 N/A
5:51 am 05:51 Sunny 73 22.8 66 18.9 79 79 SSE 12 19 29.93 1013 10 16 N/A
6:51 am 06:51 Sunny 75 23.9 66 18.9 74 74 SE 10 17 29.95 1014 10 16 N/A
7:51 am 07:51 Sunny 78 25.6 63 17.2 60 60 SSE 8 13 29.96 1015 10 16 N/A
8:51 am 08:51 Sunny 81 27.2 64 17.8 57 57 VRB 5 7 29.96 1015 10 16 N/A
9:51 am 09:51 Sunny 85 29.4 64 17.8 50 50 E 6 9 29.94 1014 10 16 N/A
10:51 am 10:51 Sunny 87 30.6 64 17.8 46 46 VRB 5 7 29.92 1013 10 16 N/A
11:51 am 11:51 Sunny 90 32.2 62 16.7 39 39 SSE 5 7 29.89 1012 10 16 N/A
12:51 pm 12:51 Sunny 93 33.9 63 17.2 37 37 VRB 6 9 29.85 1011 10 16 N/A
1:51 pm 13:51 Sunny 97 36.1 61 16.1 30 30 VRB 7 11 29.82 1010 10 16 N/A
2:51 pm 14:51 Sunny 99 37.2 60 15.6 28 28 NW 10 17 29.78 1009 10 16 N/A
3:51 pm 15:51 Sunny 101 38.3 55 12.8 22 22 WNW 16 26 29.74 1007 10 16 N/A
4:51 pm 16:51 Sunny 101 38.3 52 11.1 19 19 W 14 22 29.72 1006 10 16 N/A
5:51 pm 17:51 Sunny 100 37.8 55 12.8 22 22 WNW 15 24 29.70 1006 10 16 N/A
6:51 pm 18:51 Sunny 97 36.1 56 13.3 25 25 WNW 10 17 29.71 1006 10 16 N/A
7:51 pm 19:51 Clear 90 32.2 58 14.4 34 34 NW 7 11 29.72 1007 10 16 N/A
8:51 pm 20:51 Clear 90 32.2 56 13.3 32 32 W 6 9 29.74 1007 10 16 N/A
9:51 pm 21:51 Clear 87 30.6 57 13.9 36 36 WNW 8 13 29.75 1008 10 16 N/A
10:51 pm 22:51 Clear 88 31.1 57 13.9 35 35 WNW 12 19 29.75 1007 10 16 N/A
11:51 pm 23:51 Clear 84 28.9 58 14.4 41 41 WNW 9 15 29.75 1008 10 16 N/A

Powered by AerisWeather